[TLELIST] Archives

 

[list_settings.list_name] Current TLEs

August 18th 2014 PDT

HST 1 20580U 90037B 14229.72020580 .00001199 00000-0 69243-4 0 782 2 20580 028.4708 352.5717 0002691 222.8702 276.7834 15.05622815134007 ISS (ZARYA) 1 25544U 98067A 14230.47765046 .00006569 00000-0 12266-3 0 9164 2 25544 051.6468 150.8188 0004504 036.0473 297.9413 15.50077450900984 CXO 1 25867U 99040B 14228.72677436 .00000216 00000-0 00000+0 0 527 2 25867 076.9483 318.3155 8020465 273.4187 000.6749 00.37803458 12142 ____________________________________________________________________ These 2-Line ...Continue Reading

[list_settings.list_name] Current TLEs

August 17th 2014 PDT

HST 1 20580U 90037B 14227.79482794 .00001024 00000-0 57457-4 0 776 2 20580 028.4709 005.2313 0002779 200.6591 282.3783 15.05619752133718 ISS (ZARYA) 1 25544U 98067A 14229.40478131 .00006857 00000-0 12773-3 0 9108 2 25544 051.6464 156.1355 0004408 031.9971 071.1601 15.50063351900824 CXO 1 25867U 99040B 14228.72677436 .00000216 00000-0 00000+0 0 527 2 25867 076.9483 318.3155 8020465 273.4187 000.6749 00.37803458 12142 ____________________________________________________________________ These 2-Line ...Continue Reading

[list_settings.list_name] Current TLEs

August 16th 2014 PDT

HST 1 20580U 90037B 14227.79482794 .00001024 00000-0 57457-4 0 776 2 20580 028.4709 005.2313 0002779 200.6591 282.3783 15.05619752133718 ISS (ZARYA) 1 25544U 98067A 14228.37199251 .00028805 00000-0 50954-3 0 9049 2 25544 051.6456 161.2555 0004499 023.5522 072.6367 15.50066568900663 CXO 1 25867U 99040B 14228.72677436 .00000216 00000-0 00000+0 0 527 2 25867 076.9483 318.3155 8020465 273.4187 000.6749 00.37803458 12142 ____________________________________________________________________ These 2-Line ...Continue Reading

[list_settings.list_name] Current TLEs

August 15th 2014 PDT

HST 1 20580U 90037B 14226.65816736 .00000984 00000-0 54724-4 0 764 2 20580 028.4710 012.7051 0002819 187.9946 241.9139 15.05618116133537 ISS (ZARYA) 1 25544U 98067A 14227.40531486 .00004963 00000-0 94788-4 0 8976 2 25544 051.6460 166.0432 0004526 028.1990 070.2120 15.50030460900513 CXO 1 25867U 99040B 14228.72677436 .00000216 00000-0 00000+0 0 527 2 25867 076.9483 318.3155 8020465 273.4187 000.6749 00.37803458 12142 ____________________________________________________________________ These 2-Line ...Continue Reading

[list_settings.list_name] Current TLEs

August 14th 2014 PDT

HST 1 20580U 90037B 14225.45770707 .00001073 00000-0 60766-4 0 750 2 20580 028.4709 020.5985 0002864 173.8404 216.4571 15.05615798133351 ISS (ZARYA) 1 25544U 98067A 14226.12192703 .00005067 00000-0 94447-4 0 8898 2 25544 051.6471 172.3967 0006916 007.9702 122.8919 15.50682183900312 CXO 1 25867U 99040B 14228.72677436 .00000216 00000-0 00000+0 0 527 2 25867 076.9483 318.3155 8020465 273.4187 000.6749 00.37803458 12142 ____________________________________________________________________ These 2-Line ...Continue Reading

[list_settings.list_name] Current TLEs

August 13th 2014 PDT

HST 1 20580U 90037B 14223.88300647 .00001181 00000-0 68062-4 0 743 2 20580 028.4708 030.9530 0002895 155.5114 322.7218 15.05612675133125 ISS (ZARYA) 1 25544U 98067A 14225.22107693 .00004664 00000-0 87598-4 0 8848 2 25544 051.6466 176.8643 0006832 005.0301 133.5630 15.50670224900173 CXO 1 25867U 99040B 14226.08368154 .00000186 00000-0 00000+0 0 513 2 25867 076.9533 318.4068 8024163 273.4698 000.8234 00.37803150 12137 ____________________________________________________________________ These 2-Line ...Continue Reading

[list_settings.list_name] Current TLEs

August 12th 2014 PDT

HST 1 20580U 90037B 14223.88300647 .00001181 00000-0 68062-4 0 743 2 20580 028.4708 030.9530 0002895 155.5114 322.7218 15.05612675133125 ISS (ZARYA) 1 25544U 98067A 14224.25503632 .00005179 00000-0 96422-4 0 8784 2 25544 051.6465 181.6535 0006720 002.3600 139.8534 15.50661941900026 CXO 1 25867U 99040B 14226.08368154 .00000186 00000-0 00000+0 0 513 2 25867 076.9533 318.4068 8024163 273.4698 000.8234 00.37803150 12137 ____________________________________________________________________ These 2-Line ...Continue Reading

[list_settings.list_name] Current TLEs

August 11th 2014 PDT

HST 1 20580U 90037B 14222.82401477 .00001823 00000-0 11156-3 0 732 2 20580 028.4708 037.9168 0002910 143.0535 343.9024 15.05608148132967 ISS (ZARYA) 1 25544U 98067A 14223.47381341 .00006151 00000-0 11304-3 0 8739 2 25544 051.6454 185.5275 0007003 357.9302 100.3383 15.50657373899904 CXO 1 25867U 99040B 14223.43711417 .00000336 00000-0 00000+0 0 497 2 25867 076.9576 318.4893 8031315 273.5204 000.5417 00.37802532 12123 ____________________________________________________________________ These 2-Line ...Continue Reading

[list_settings.list_name] Current TLEs

August 10th 2014 PDT

HST 1 20580U 90037B 14220.96787703 .00001706 00000-0 10365-3 0 724 2 20580 028.4706 050.1258 0003142 125.5266 000.9434 15.05604079132689 ISS (ZARYA) 1 25544U 98067A 14222.37779258 .00007045 00000-0 12834-3 0 8670 2 25544 051.6454 190.9631 0007020 353.8954 101.9766 15.50646520899732 CXO 1 25867U 99040B 14223.43711417 .00000336 00000-0 00000+0 0 497 2 25867 076.9576 318.4893 8031315 273.5204 000.5417 00.37802532 12123 ____________________________________________________________________ These 2-Line ...Continue Reading

[list_settings.list_name] Current TLEs

August 9th 2014 PDT

HST 1 20580U 90037B 14220.96787703 .00001706 00000-0 10365-3 0 724 2 20580 028.4706 050.1258 0003142 125.5266 000.9434 15.05604079132689 ISS (ZARYA) 1 25544U 98067A 14221.22246002 .00007479 00000-0 13583-3 0 8616 2 25544 051.6453 196.6937 0006992 349.8490 132.3547 15.50630687899552 CXO 1 25867U 99040B 14223.43711417 .00000336 00000-0 00000+0 0 497 2 25867 076.9576 318.4893 8031315 273.5204 000.5417 00.37802532 12123 ____________________________________________________________________ These 2-Line ...Continue Reading
  • This mailing list is a public mailing list - anyone may join or leave, at any time.
  • This mailing list is announce-only.

International Space Station (ISS) / Hubble Space Telescope (HST) / Chandra X-Ray Observatory Orbital Data via EMAIL

Privacy Policy:

Private list